User: anonymous
Location: Caltech
(34.1382°N, 118.1253°W)
Time: 14:42:44
(UTC-07:00)
Language:

SEDSat Delta rocket - Orbit

View from above orbital plane
View from above orbital plane
View from above satellite
View from above satellite

Ground track
Ground track

The orbit data is extracted from the following two-line orbital elements,

1 25510U 98061C   14203.18214534  .00000671  00000-0  11076-3 0  9144
2 25510 031.4344 101.1345 0332949 038.9416 120.9734 14.35741837824610
Epoch (UTC): 22 July 2014 04:22:17
Eccentricity: 0.0332949
inclination: 31.4344°
perigee height: 534 km
apogee height: 1010 km
right ascension of ascending node: 101.1345°
argument of perigee: 38.9416°
revolutions per day: 14.35741837
mean anomaly at epoch: 120.9734°
orbit number at epoch: 82461

The dashed part of the orbit path shows where the satellite is in the earth's shadow,  

DLR